Moab, UT

5:54 AM MDT on October 15, 2019 (GMT -0600)
Canyonlands

Weather History for KCNY - August, 2019

Change the Weather History Date:

Wednesday, August 28, 2019

  Actual Average Record
Temperature  
Mean Temperature 75 °F 74 °F  
Max Temperature 98 °F 89 °F 106 °F (1990)
Min Temperature 52 °F 59 °F 44 °F (1933)
Degree Days  
Heating Degree Days 0 0  
Month to date heating degree days 0 0  
Since 1 June heating degree days 23 17  
Since 1 July heating degree days 0 0  
Cooling Degree Days 10 9  
Month to date cooling degree days 432 347  
Year to date cooling degree days 1205 1140  
Since 1 June cooling degree days 1190 1076  
Growing Degree Days 24 (Base 50)    
Moisture  
Dew Point 11 °F    
Average Humidity 9    
Maximum Humidity 15    
Minimum Humidity 3    
Precipitation  
Precipitation 0.00 in 0.03 in 1.50 in (1939)
Month to date precipitation 0.02 0.74  
Year to date precipitation 6.17 5.28  
Sea Level Pressure  
Sea Level Pressure 29.91 in    
Wind  
Wind Speed 3 mph (South)    
Max Wind Speed 14 mph    
Max Gust Speed 21 mph    
Visibility 10 miles    
Events      
T = Trace of Precipitation, MM = Missing Value Source: NWS Daily Summary

Daily Weather History Graph

Daily Weather History Graph

Search for Another Location

Airport or City:

Astronomy

Aug. 28, 2019 Rise Set
Actual Time 6:44 AM MDT 7:55 PM MDT
Civil Twilight 6:16 AM MDT 8:22 PM MDT
Nautical Twilight 5:44 AM MDT 8:55 PM MDT
Astronomical Twilight 5:09 AM MDT 9:29 PM MDT
Moon 4:22 AM MDT (8/28) 7:08 PM MDT (8/28)
Length of Visible Light 14h 05m
Length of Day
13h 11m
Waning Crescent, 4% of the Moon is Illuminated
Aug 28
Waning Crescent
Aug 30
New
Sep 5
First Quarter
Sep 13
Full
Sep 21
Last Quarter

Hourly Weather History & Observations

Time (MDT) Temp. Dew Point Humidity Pressure Visibility Wind Dir Wind Speed Gust Speed Precip Events Conditions
12:53 AM 71.1 °F 10.0 °F 9% 29.89 in 10.0 mi Calm Calm - N/A   Clear
1:53 AM 64.0 °F 10.0 °F 12% 29.90 in 10.0 mi Calm Calm - N/A   Clear
2:53 AM 59.0 °F 10.0 °F 14% 29.91 in 10.0 mi WSW 5.8 mph - N/A   Clear
3:53 AM 59.0 °F 10.9 °F 15% 29.91 in 10.0 mi Calm Calm - N/A   Clear
4:53 AM 64.0 °F 10.9 °F 13% 29.91 in 10.0 mi Calm Calm - N/A   Clear
5:53 AM 57.9 °F 10.0 °F 15% 29.94 in 10.0 mi Calm Calm - N/A   Clear
6:53 AM 53.1 °F 6.1 °F 15% 29.97 in 10.0 mi Calm Calm - N/A   Clear
7:53 AM 62.1 °F 12.9 °F 15% 29.98 in 10.0 mi Calm Calm - N/A   Clear
8:53 AM 73.0 °F 19.0 °F 13% 29.98 in 10.0 mi SSE 8.1 mph - N/A   Clear
9:53 AM 79.0 °F 19.9 °F 11% 29.99 in 10.0 mi ESE 8.1 mph - N/A   Clear
10:53 AM 82.0 °F 19.0 °F 10% 30.00 in 10.0 mi Calm Calm - N/A   Clear
11:53 AM 88.0 °F 17.1 °F 7% 29.98 in 10.0 mi ESE 5.8 mph - N/A   Clear
12:53 PM 89.1 °F 16.0 °F 7% 29.96 in 10.0 mi Calm Calm - N/A   Clear
1:53 PM 95.0 °F 14.0 °F 5% 29.93 in 10.0 mi Calm Calm - N/A   Clear
2:53 PM 96.1 °F 10.0 °F 4% 29.91 in 10.0 mi NNE 5.8 mph - N/A   Clear
3:53 PM 95.0 °F 9.0 °F 4% 29.89 in 10.0 mi Variable 3.5 mph - N/A   Clear
4:53 PM 96.1 °F 3.0 °F 4% 29.84 in 10.0 mi NNE 4.6 mph - N/A   Clear
5:53 PM 96.1 °F 3.9 °F 4% 29.83 in 10.0 mi SE 6.9 mph - N/A   Clear
6:53 PM 95.0 °F 3.9 °F 4% 29.83 in 10.0 mi WSW 4.6 mph - N/A   Clear
7:53 PM 87.1 °F 5.0 °F 4% 29.83 in 10.0 mi WSW 3.5 mph - N/A   Clear
10:53 PM 69.1 °F 8.1 °F 9% 29.88 in - West 4.6 mph - N/A   Unknown
11:53 PM 70.0 °F 5.0 °F 8% 29.87 in 10.0 mi NW 9.2 mph - N/A   Clear